Regional Weather Roundup
Issued by NWS Little Rock, AR

Home | Current Version | Previous Version | Graphics & Text | Print | Product List | Glossary On
Versions: 1 2 3 4 5 6 7 8 9 10 11 12 13 14 15 16 17 18 19 20 21 22 23 24 25 26 27
000
ASUS44 KLZK 271705
RWRLZK

WEATHER ROUNDUP FOR ARKANSAS
NATIONAL WEATHER SERVICE LITTLE ROCK AR
1200 PM CDT SAT AUG 27 2016

NOTE: "FAIR" INDICATES FEW OR NO CLOUDS BELOW 12,000 FEET WITH NO
SIGNIFICANT WEATHER AND/OR OBSTRUCTIONS TO VISIBILITY.

ARZ001-003-010-029-271800-
NORTHWEST ARKANSAS

CITY           SKY/WX    TMP DP  RH WIND       PRES   REMARKS
FAYETTEVILLE   PTSUNNY   83  71  67 NW7       30.09F HX  87
FORT SMITH     CLOUDY    85  72  65 E5        30.05F HX  91
HARRISON       MOSUNNY   82  70  66 CALM      30.11S HX  86
BENTONVILLE    PTSUNNY   84  66  54 N6        30.11S HX  86
ROGERS         MOSUNNY   83  70  64 NW3       30.11S HX  87
SILOAM SPGS    MOSUNNY   84  64  51 NW6         N/A  HX  86
HIGHFILL       MOSUNNY   85  69  58 VRB5      30.09F HX  89
SPRINGDALE     MOSUNNY   84  68  58 NW5       30.11F HX  87
$$

ARZ004-005-016-271800-
NORTH CENTRAL ARKANSAS

CITY           SKY/WX    TMP DP  RH WIND       PRES   REMARKS
BATESVILLE     PTSUNNY   86  75  70 W3        30.08F HX  95
FLIPPIN        MOSUNNY   84  72  65 N5        30.06F HX  89
MTN HOME       MOSUNNY   82  74  76 CALM      30.09S HX  88
$$

ARZ040-041-271800-
WEST CENTRAL ARKANSAS

CITY           SKY/WX    TMP DP  RH WIND       PRES   REMARKS
MENA           CLOUDY    86  77  74 E5        30.09F HX  97
MOUNT IDA      MOSUNNY   85  72  65 E3        30.06F HX  91
$$

ARZ009-017-025-026-028-271800-
NORTHEAST ARKANSAS

CITY           SKY/WX    TMP DP  RH WIND       PRES   REMARKS
CORNING          N/A     84  77  79 SE5       30.08F HX  94
JONESBORO      SUNNY     86  73  65 CALM      30.07F HX  93
NEWPORT        CLOUDY    86  73  65 E3        30.08F HX  93
WALNUT RIDGE   SUNNY     84  73  70 CALM      30.07S HX  91
BLYTHEVILLE    SUNNY     85  75  72 CALM      30.09F HX  93
$$

ARZ022-023-033-042-044-271800-
CENTRAL ARKANSAS

CITY           SKY/WX    TMP DP  RH WIND       PRES   REMARKS
LITTLE ROCK    PTSUNNY   88  75  65 CALM      30.06F HX  97
JACKSONVILLE   MOSUNNY   85  76  74 CALM      30.06F HX  95
SEARCY         MOSUNNY   87  76  69 SW3       30.08F HX  97
HOT SPRINGS    MOSUNNY   86  73  65 S6        30.07F HX  93
RUSSELLVILLE   PTSUNNY   83  75  77 VRB3      30.06F HX  90
$$

ARZ036-271800-
EAST ARKANSAS

CITY           SKY/WX    TMP DP  RH WIND       PRES   REMARKS
WEST MEMPHIS   SUNNY     82  74  76 CALM      30.07F HX  88
$$

ARZ050-053-066-070-073-271800-
SOUTHWEST ARKANSAS

CITY           SKY/WX    TMP DP  RH WIND       PRES   REMARKS
ARKADELPHIA    FAIR      84  75  74 NE3       30.06F HX  92
TEXARKANA      MOSUNNY   87  71  58 E5        30.05F HX  93
EL DORADO      MOSUNNY   87  74  64 CALM      30.05F HX  95
DE QUEEN       MOSUNNY   87  77  72 VRB3      30.03F HX  99
$$

ARZ056-057-069-271800-
SOUTHEAST ARKANSAS

CITY           SKY/WX    TMP DP  RH WIND       PRES   REMARKS
PINE BLUFF     CLOUDY    86  75  69 S5        30.07S HX  95
STUTTGART      MOSUNNY   84  73  70 S3        30.07F HX  91
MONTICELLO     SUNNY     89  74  60 CALM      30.06F HX  98

$$






USA.gov is the U.S. government's official web portal to all federal, state and local government web resources and services.